QPF
0.00 0.00 0.00 0.00 0.00 0.00 0.00 0.00 0.00 0.00 0.00 0.00 0.00 0.00 0.00 0.00 0.00 0.00 0.00 0.00 0.00 0.00 0.00 0.00 0.00 0.00 0.00 0.00 0.00 0.00 0.00 0.00 0.00 0.00 0.00 0.00 0.00 0.00 0.00 0.00 0.00 0.00 0.00 0.00 0.00 0.00 0.00 0.00 0.00
0.00 0.00 0.00 0.00 0.00 0.00 0.00 0.00 0.00 0.00 0.00 0.00 0.00 0.00 0.00 0.00 0.00 0.00 0.00 0.00 0.00 0.00 0.00 0.00 0.00 0.00 0.00 0.00 0.00 0.00 0.00 0.00 0.00 0.00 0.00 0.00 0.00 0.00 0.00 0.00 0.00 0.00 0.00 0.00 0.00 0.00 0.00 0.00 0.00
0.00 0.00 0.00 0.00 0.00 0.00 0.00 0.00 0.00 0.00 0.00 0.00 0.00 0.00 0.00 0.00 0.00 0.00 0.00 0.00 0.00 0.00 0.00 0.00 0.00 0.00 0.00 0.00 0.00 0.00 0.00 0.00 0.00 0.00 0.00 0.00 0.00 0.00 0.00 0.00 0.00 0.00 0.00 0.00 0.00 0.00 0.00 0.00 0.00
0.00 0.00 0.00 0.00 0.00 0.00 0.00 0.00 0.00 0.00 0.00 0.00 0.00 0.00 0.00 0.00 0.00 0.00 0.00 0.00 0.00 0.00 0.00 0.00 0.00 0.00 0.00 0.00 0.00 0.00 0.00 0.00 0.00 0.00 0.00 0.00 0.00 0.00 0.00 0.00 0.00 0.00 0.00 0.00 0.00 0.00 0.00 0.00 0.00
0.00 0.00 0.00 0.00 0.00 0.00 0.00 0.00 0.00 0.00 0.00 0.00 0.00 0.00 0.00 0.00 0.00 0.00 0.00 0.00 0.00 0.00 0.00 0.00 0.00 0.00 0.00 0.00 0.00 0.00 0.00 0.00 0.00 0.00 0.00 0.00 0.00 0.00 0.00 0.00 0.00 0.00 0.00 0.00 0.00 0.00 0.00 0.00 0.00
0.00 0.00 0.00 0.00 0.00 0.00 0.00 0.00 0.00 0.00 0.00 0.00 0.00 0.00 0.00 0.00 0.00 0.00 0.00 0.00 0.00 0.00 0.00 0.00 0.00 0.00 0.00 0.00 0.00 0.00 0.00 0.00 0.00 0.00 0.00 0.00 0.00 0.00 0.00 0.00 0.00 0.00 0.00 0.00 0.00 0.00 0.00 0.00 0.00
0.00 0.00 0.00 0.00 0.00 0.00 0.00 0.00 0.00 0.00 0.00 0.00 0.00 0.00 0.00 0.00 0.00 0.00 0.00 0.00 0.00 0.00 0.00 0.00 0.00 0.00 0.00 0.00 0.00 0.00 0.00 0.00 0.00 0.00 0.00 0.00 0.00 0.00 0.00 0.00 0.00 0.00 0.00 0.00 0.00 0.00 0.00 0.00 0.00
0.00 0.00 0.00 0.00 0.00 0.00 0.00 0.00 0.00 0.00 0.00 0.00 0.00 0.00 0.00 0.00 0.00 0.00 0.00 0.00 0.00 0.00 0.00 0.00 0.00 0.00 0.00 0.00 0.00 0.00 0.00 0.00 0.00 0.00 0.00 0.00 0.00 0.00 0.00 0.00 0.00 0.00 0.00 0.00 0.00 0.00 0.00 0.00 0.00
0.00 0.00 0.00 0.00 0.00 0.00 0.00 0.00 0.00 0.00 0.00 0.00 0.00 0.00 0.00 0.00 0.00 0.00 0.00 0.00 0.00 0.00 0.00 0.00 0.00 0.00 0.00 0.00 0.00 0.00 0.00 0.00 0.00 0.00 0.00 0.00 0.00 0.00 0.00 0.00 0.00 0.00 0.00 0.00 0.00 0.00 0.00 0.00 0.00
0.00 0.00 0.00 0.00 0.00 0.00 0.00 0.00 0.00 0.00 0.00 0.00 0.00 0.00 0.00 0.00 0.00 0.00 0.00 0.00 0.00 0.00 0.00 0.00 0.00 0.00 0.00 0.00 0.00 0.00 0.00 0.00 0.00 0.00 0.00 0.00 0.00 0.00 0.00 0.00 0.00 0.00 0.00 0.00 0.00 0.00 0.00 0.00 0.00
0.00 0.00 0.00 0.00 0.00 0.00 0.00 0.00 0.00 0.00 0.00 0.00 0.00 0.00 0.00 0.00 0.00 0.00 0.00 0.00 0.00 0.00 0.00 0.00 0.00 0.00 0.00 0.00 0.00 0.00 0.00 0.00 0.00 0.00 0.00 0.00 0.00 0.00 0.00 0.00 0.00 0.00 0.00 0.00 0.00 0.00 0.00 0.00 0.00
0.00 0.00 0.00 0.00 0.00 0.00 0.00 0.00 0.00 0.00 0.00 0.00 0.00 0.00 0.00 0.00 0.00 0.00 0.00 0.00 0.00 0.00 0.00 0.00 0.00 0.00 0.00 0.00 0.00 0.00 0.00 0.00 0.00 0.00 0.00 0.00 0.00 0.00 0.00 0.00 0.00 0.00 0.00 0.00 0.00 0.00 0.00 0.00 0.00
0.00 0.00 0.00 0.00 0.00 0.00 0.00 0.00 0.00 0.00 0.00 0.00 0.00 0.00 0.00 0.00 0.00 0.00 0.00 0.00 0.00 0.00 0.00 0.00 0.00 0.00 0.00 0.00 0.00 0.00 0.00 0.00 0.00 0.00 0.00 0.00 0.00 0.00 0.00 0.00 0.00 0.00 0.00 0.00 0.00 0.00 0.00 0.00 0.00
0.00 0.00 0.00 0.00 0.00 0.00 0.00 0.00 0.00 0.00 0.00 0.00 0.00 0.00 0.00 0.00 0.00 0.00 0.00 0.00 0.00 0.00 0.00 0.00 0.00 0.00 0.00 0.00 0.00 0.00 0.00 0.00 0.00 0.00 0.00 0.00 0.00 0.01 0.00 0.00 0.00 0.00 0.00 0.00 0.00 0.00 0.00 0.00 0.00
0.00 0.00 0.00 0.00 0.00 0.00 0.00 0.00 0.00 0.00 0.00 0.00 0.00 0.00 0.00 0.00 0.00 0.00 0.00 0.00 0.00 0.00 0.00 0.00 0.00 0.00 0.00 0.00 0.00 0.00 0.00 0.00 0.00 0.00 0.00 0.00 0.02 0.02 0.02 0.00 0.00 0.00 0.00 0.00 0.00 0.00 0.00 0.00 0.00
0.00 0.00 0.00 0.00 0.00 0.00 0.00 0.00 0.00 0.00 0.00 0.00 0.00 0.00 0.00 0.00 0.00 0.00 0.00 0.00 0.00 0.00 0.00 0.00 0.00 0.00 0.00 0.00 0.00 0.00 0.01 0.00 0.00 0.00 0.00 0.00 0.01 0.02 0.04 0.04 0.02 0.00 0.00 0.00 0.00 0.00 0.00 0.00 0.00
0.00 0.00 0.00 0.00 0.00 0.00 0.00 0.00 0.00 0.00 0.00 0.00 0.00 0.00 0.00 0.00 0.00 0.00 0.00 0.00 0.00 0.00 0.00 0.00 0.00 0.00 0.00 0.00 0.00 0.00 0.01 0.01 0.00 0.00 0.00 0.00 0.00 0.00 0.01 0.02 0.03 0.03 0.00 0.00 0.00 0.00 0.00 0.00 0.00
0.00 0.00 0.00 0.00 0.00 0.00 0.00 0.00 0.00 0.00 0.00 0.00 0.00 0.00 0.00 0.00 0.00 0.00 0.00 0.00 0.00 0.00 0.00 0.00 0.00 0.00 0.00 0.00 0.01 0.02 0.01 0.00 0.00 0.00 0.00 0.00 0.00 0.00 0.00 0.00 0.02 0.04 0.03 0.01 0.00 0.00 0.00 0.00 0.00
0.00 0.00 0.00 0.00 0.00 0.00 0.00 0.00 0.00 0.00 0.00 0.00 0.00 0.00 0.00 0.00 0.00 0.00 0.00 0.00 0.00 0.00 0.00 0.00 0.00 0.00 0.00 0.00 0.01 0.01 0.00 0.00 0.00 0.00 0.00 0.00 0.00 0.00 0.00 0.00 0.01 0.03 0.05 0.05 0.00 0.00 0.00 0.00 0.00
0.00 0.00 0.00 0.00 0.00 0.00 0.00 0.00 0.00 0.00 0.00 0.00 0.00 0.00 0.00 0.00 0.00 0.00 0.00 0.00 0.00 0.00 0.00 0.00 0.00 0.00 0.00 0.00 0.00 0.00 0.00 0.00 0.00 0.00 0.00 0.01 0.00 0.00 0.00 0.00 0.00 0.00 0.02 0.05 0.02 0.00 0.00 0.00 0.00
0.00 0.00 0.00 0.00 0.00 0.00 0.00 0.00 0.00 0.00 0.00 0.00 0.00 0.00 0.00 0.00 0.00 0.00 0.00 0.00 0.00 0.00 0.00 0.00 0.00 0.00 0.00 0.00 0.00 0.00 0.00 0.00 0.00 0.00 0.00 0.00 0.00 0.00 0.00 0.00 0.00 0.00 0.00 0.01 0.04 0.01 0.00 0.00 0.01
0.00 0.00 0.00 0.00 0.00 0.00 0.00 0.00 0.00 0.00 0.00 0.00 0.00 0.00 0.00 0.00 0.00 0.00 0.00 0.00 0.00 0.00 0.00 0.00 0.00 0.00 0.00 0.00 0.00 0.00 0.00 0.00 0.00 0.00 0.00 0.00 0.00 0.00 0.00 0.00 0.00 0.00 0.01 0.01 0.05 0.10 0.05 0.06 0.06
0.00 0.00 0.00 0.00 0.00 0.00 0.00 0.00 0.00 0.00 0.00 0.00 0.00 0.00 0.00 0.00 0.00 0.00 0.00 0.00 0.00 0.00 0.00 0.00 0.00 0.00 0.00 0.00 0.00 0.00 0.00 0.00 0.00 0.00 0.00 0.00 0.00 0.00 0.00 0.00 0.00 0.00 0.00 0.00 0.01 0.04 0.05 0.04 0.05
0.00 0.00 0.00 0.00 0.00 0.00 0.00 0.00 0.00 0.00 0.00 0.00 0.00 0.00 0.00 0.00 0.00 0.00 0.00 0.00 0.00 0.00 0.00 0.00 0.00 0.00 0.00 0.00 0.00 0.00 0.00 0.00 0.00 0.00 0.00 0.00 0.00 0.00 0.00 0.00 0.00 0.00 0.00 0.00 0.01 0.03 0.04 0.04 0.04
0.00 0.00 0.00 0.00 0.00 0.00 0.00 0.00 0.00 0.00 0.00 0.00 0.00 0.00 0.00 0.00 0.00 0.00 0.00 0.00 0.00 0.00 0.00 0.00 0.00 0.00 0.00 0.00 0.00 0.00 0.00 0.00 0.00 0.00 0.00 0.00 0.00 0.00 0.00 0.00 0.00 0.00 0.00 0.00 0.00 0.00 0.01 0.02 0.01
0.00 0.00 0.00 0.00 0.00 0.00 0.00 0.00 0.00 0.00 0.00 0.00 0.00 0.00 0.00 0.00 0.00 0.00 0.00 0.00 0.00 0.00 0.00 0.00 0.00 0.01 0.00 0.00 0.00 0.00 0.00 0.00 0.00 0.00 0.00 0.00 0.00 0.00 0.00 0.00 0.00 0.00 0.00 0.00 0.00 0.00 0.00 0.00 0.00
0.00 0.00 0.00 0.00 0.00 0.00 0.00 0.00 0.00 0.00 0.00 0.00 0.00 0.00 0.00 0.00 0.00 0.00 0.00 0.00 0.00 0.00 0.00 0.00 0.01 0.03 0.01 0.00 0.00 0.00 0.00 0.00 0.00 0.00 0.00 0.00 0.00 0.00 0.00 0.00 0.00 0.00 0.00 0.00 0.00 0.00 0.00 0.00 0.00
0.00 0.00 0.00 0.00 0.00 0.00 0.00 0.00 0.00 0.00 0.00 0.00 0.00 0.00 0.00 0.00 0.00 0.00 0.00 0.00 0.00 0.00 0.00 0.00 0.00 0.00 0.01 0.01 0.00 0.00 0.00 0.00 0.00 0.00 0.00 0.01 0.01 0.01 0.00 0.00 0.00 0.00 0.00 0.00 0.00 0.00 0.00 0.00 0.00
0.00 0.00 0.00 0.00 0.00 0.00 0.00 0.00 0.00 0.00 0.00 0.00 0.00 0.00 0.00 0.00 0.00 0.00 0.00 0.00 0.00 0.00 0.00 0.00 0.00 0.00 0.00 0.00 0.00 0.00 0.00 0.00 0.00 0.00 0.00 0.00 0.00 0.00 0.00 0.00 0.00 0.00 0.00 0.00 0.00 0.00 0.01 0.01 0.01
0.00 0.00 0.00 0.00 0.00 0.01 0.01 0.00 0.00 0.00 0.00 0.00 0.00 0.00 0.00 0.00 0.00 0.00 0.00 0.00 0.00 0.00 0.00 0.00 0.00 0.00 0.00 0.00 0.00 0.00 0.00 0.00 0.00 0.00 0.00 0.00 0.00 0.00 0.00 0.00 0.00 0.00 0.00 0.00 0.00 0.01 0.01 0.02 0.01
MSLP
1011.02 1011.00 1010.86 1010.23 1010.13 1009.00 1008.95 1009.30 1009.27 1008.18 1007.51 1007.13 1007.17 1006.87 1006.41 1006.45 1006.45 1006.97 1007.39 1007.48 1007.90 1007.83 1008.34 1009.13 1009.55 1009.90 1010.35 1010.43 1010.43 1010.65 1010.80 1010.81 1010.90 1011.14 1011.44 1011.62 1011.78 1011.98 1012.25 1012.46 1012.56 1012.74 1012.90 1013.11 1013.27 1013.41 1013.61 1013.78 1013.90
1010.77 1010.72 1010.36 1009.85 1009.36 1008.62 1009.51 1009.79 1009.01 1008.73 1008.35 1007.76 1007.11 1006.73 1006.59 1006.91 1007.11 1007.04 1007.19 1008.05 1008.24 1008.44 1008.57 1008.79 1009.54 1009.77 1010.21 1010.40 1010.59 1010.77 1010.98 1011.10 1011.21 1011.32 1011.60 1011.83 1011.98 1012.19 1012.49 1012.70 1012.80 1012.86 1012.98 1013.14 1013.37 1013.55 1013.68 1013.84 1013.99
1010.53 1010.39 1009.78 1009.71 1009.80 1009.44 1009.72 1009.94 1009.49 1008.82 1008.44 1007.79 1007.09 1006.91 1007.29 1008.27 1007.89 1007.73 1008.17 1008.36 1008.45 1008.75 1009.00 1009.37 1009.70 1009.87 1010.24 1010.47 1010.71 1010.93 1011.09 1011.21 1011.40 1011.50 1011.68 1011.95 1012.13 1012.38 1012.67 1012.92 1012.96 1013.00 1013.07 1013.21 1013.45 1013.60 1013.76 1013.88 1013.97
1010.10 1009.96 1010.64 1010.05 1010.04 1010.62 1010.53 1010.31 1009.91 1008.78 1008.16 1007.93 1007.74 1007.47 1008.30 1009.15 1008.93 1008.64 1008.61 1008.55 1008.41 1008.62 1008.89 1009.58 1009.97 1010.21 1010.47 1010.72 1010.98 1011.18 1011.24 1011.43 1011.53 1011.62 1011.79 1012.03 1012.30 1012.51 1012.76 1013.03 1013.08 1013.08 1013.24 1013.35 1013.49 1013.66 1013.78 1013.88 1013.99
1010.33 1010.13 1010.11 1010.52 1010.81 1010.94 1010.82 1010.66 1010.23 1009.26 1008.85 1008.39 1007.95 1008.07 1008.45 1008.80 1009.08 1008.76 1008.70 1008.79 1008.72 1008.92 1009.11 1009.41 1009.86 1010.20 1010.46 1010.69 1010.95 1011.13 1011.30 1011.46 1011.61 1011.73 1011.93 1012.10 1012.36 1012.59 1012.82 1013.01 1013.14 1013.21 1013.32 1013.39 1013.53 1013.70 1013.78 1013.83 1013.91
1010.26 1010.50 1010.30 1010.58 1011.06 1011.20 1011.02 1010.98 1010.41 1009.80 1009.46 1008.84 1008.51 1008.57 1009.01 1009.27 1008.83 1008.76 1008.78 1008.82 1008.93 1009.07 1009.26 1009.46 1010.00 1010.30 1010.58 1010.77 1010.92 1011.14 1011.25 1011.37 1011.56 1011.66 1011.87 1012.04 1012.25 1012.60 1012.84 1013.04 1013.16 1013.26 1013.36 1013.44 1013.52 1013.69 1013.79 1013.84 1013.88
1010.29 1010.45 1011.14 1011.33 1011.28 1011.27 1011.33 1011.25 1010.59 1010.27 1009.77 1009.48 1009.61 1008.98 1009.17 1009.05 1009.43 1009.25 1009.05 1009.07 1009.21 1009.31 1009.45 1009.57 1009.74 1010.13 1010.52 1010.70 1010.94 1011.14 1011.31 1011.53 1011.66 1011.72 1011.80 1011.91 1012.11 1012.35 1012.73 1012.91 1013.04 1013.21 1013.37 1013.43 1013.48 1013.63 1013.75 1013.75 1013.79
1010.96 1010.99 1011.47 1011.75 1011.70 1011.77 1011.83 1011.46 1011.15 1010.65 1010.12 1010.05 1009.77 1009.38 1009.31 1009.53 1009.51 1009.24 1009.17 1009.29 1009.33 1009.41 1009.51 1009.75 1009.89 1009.94 1010.20 1010.31 1010.95 1011.22 1011.34 1011.44 1011.63 1011.82 1011.90 1012.04 1012.14 1012.32 1012.60 1012.86 1012.91 1013.07 1013.16 1013.28 1013.39 1013.54 1013.66 1013.62 1013.56
1011.47 1011.21 1011.54 1012.00 1012.05 1012.17 1012.15 1011.74 1011.24 1011.10 1010.72 1010.55 1010.45 1010.17 1010.01 1009.95 1009.71 1009.18 1009.01 1008.91 1009.08 1009.34 1009.56 1009.63 1009.72 1009.94 1010.10 1010.22 1010.46 1011.06 1011.30 1011.54 1011.63 1011.71 1011.87 1012.09 1011.87 1011.92 1012.07 1012.28 1012.55 1012.84 1012.92 1013.00 1013.17 1013.30 1013.40 1013.44 1013.31
1011.44 1011.82 1012.37 1012.66 1012.68 1012.54 1012.46 1012.18 1011.59 1011.21 1011.01 1010.72 1010.36 1010.26 1010.46 1010.19 1009.96 1009.68 1009.31 1008.86 1008.69 1008.82 1009.11 1009.42 1009.71 1009.77 1009.80 1010.23 1010.37 1010.65 1010.71 1010.89 1011.11 1011.23 1011.43 1011.57 1011.56 1011.75 1011.79 1011.98 1012.42 1012.55 1012.61 1012.68 1012.84 1012.92 1012.97 1013.08 1012.52
1012.36 1012.35 1012.95 1012.79 1012.88 1012.95 1012.63 1012.22 1012.01 1011.55 1011.02 1011.15 1011.16 1010.86 1010.31 1010.11 1010.07 1009.96 1009.67 1009.48 1009.16 1008.87 1008.88 1008.78 1009.17 1009.45 1009.64 1010.06 1009.99 1010.15 1010.53 1010.57 1010.77 1010.95 1011.15 1011.22 1011.41 1011.57 1011.79 1011.74 1011.87 1011.99 1012.19 1012.00 1012.10 1012.12 1012.13 1012.10 1012.26
1012.88 1013.20 1013.12 1012.99 1013.03 1013.01 1012.61 1012.43 1011.99 1011.92 1011.67 1011.79 1011.50 1011.31 1010.81 1010.26 1009.88 1009.75 1009.62 1009.41 1009.36 1009.06 1008.59 1008.68 1008.95 1009.25 1009.44 1009.56 1009.78 1009.65 1010.05 1010.47 1010.59 1010.81 1010.92 1010.92 1011.07 1011.40 1011.75 1011.51 1011.42 1011.65 1011.45 1011.52 1011.71 1011.54 1011.65 1011.83 1011.96
1013.00 1013.21 1013.26 1013.25 1013.21 1013.07 1012.89 1012.39 1012.15 1011.87 1011.83 1011.90 1011.62 1011.09 1010.73 1010.38 1010.09 1009.78 1009.74 1009.59 1009.36 1009.15 1008.78 1008.59 1008.66 1008.75 1008.91 1009.28 1009.18 1009.37 1009.44 1009.88 1010.15 1010.43 1010.54 1010.52 1010.93 1011.16 1011.55 1011.55 1011.52 1011.22 1011.07 1011.26 1011.27 1011.23 1011.33 1011.37 1011.41
1013.72 1013.58 1013.41 1013.28 1013.07 1012.86 1012.64 1012.13 1012.02 1011.57 1011.76 1011.46 1011.23 1010.78 1010.52 1010.29 1010.01 1009.73 1009.41 1009.24 1009.15 1009.07 1008.77 1008.64 1008.55 1008.42 1008.51 1008.78 1008.77 1008.85 1008.94 1009.05 1009.59 1009.92 1010.09 1010.02 1010.28 1010.85 1011.03 1011.46 1011.30 1010.88 1010.80 1010.77 1010.81 1010.89 1010.96 1010.92 1010.95
1013.74 1013.35 1013.30 1013.20 1013.19 1012.76 1012.48 1011.64 1011.45 1011.32 1011.67 1011.30 1011.07 1010.87 1010.62 1010.43 1010.25 1009.99 1009.79 1009.45 1009.27 1008.96 1008.69 1008.45 1008.32 1008.18 1008.27 1008.10 1008.37 1008.59 1008.74 1008.81 1009.30 1009.46 1009.69 1009.88 1009.77 1010.16 1010.54 1010.48 1010.29 1010.26 1010.32 1010.63 1010.68 1010.77 1010.77 1010.75 1010.60
1013.82 1013.79 1013.23 1013.06 1013.22 1013.01 1012.77 1011.09 1011.34 1011.20 1011.24 1010.89 1011.01 1010.95 1010.82 1010.62 1010.70 1010.31 1009.96 1009.58 1009.07 1008.81 1008.54 1008.09 1007.79 1007.55 1007.74 1007.71 1007.64 1007.87 1008.19 1008.46 1008.75 1008.81 1009.15 1009.30 1009.48 1009.73 1010.14 1010.00 1009.74 1009.34 1009.64 1009.99 1010.19 1010.22 1010.15 1010.13 1010.03
1014.12 1013.77 1013.58 1013.19 1013.14 1013.13 1012.78 1011.33 1011.00 1010.95 1010.98 1010.94 1010.96 1010.87 1010.85 1010.75 1010.49 1010.40 1010.04 1009.62 1009.22 1008.70 1008.21 1007.67 1007.51 1007.16 1006.78 1007.09 1007.57 1007.62 1007.71 1008.14 1008.04 1008.21 1008.29 1008.47 1008.76 1009.00 1009.52 1009.45 1009.30 1009.28 1009.14 1009.35 1009.58 1009.63 1009.76 1009.39 1009.34
1014.11 1013.94 1013.74 1013.47 1012.95 1013.01 1012.45 1011.74 1010.95 1010.49 1010.89 1011.04 1011.06 1011.03 1010.94 1010.85 1010.78 1010.68 1010.16 1009.73 1009.23 1008.70 1008.22 1007.61 1007.16 1006.92 1006.60 1006.55 1006.99 1007.55 1007.62 1007.52 1007.61 1007.77 1007.88 1008.02 1008.23 1008.48 1008.91 1008.96 1008.95 1009.05 1008.94 1008.94 1008.96 1009.12 1009.11 1009.13 1008.74
1014.42 1014.31 1013.86 1013.50 1013.48 1013.32 1012.37 1011.79 1011.13 1010.48 1011.01 1011.17 1011.33 1011.42 1011.32 1011.09 1010.98 1010.54 1010.01 1009.52 1008.86 1008.27 1007.65 1007.30 1006.90 1006.28 1006.37 1006.26 1006.59 1006.72 1006.63 1006.53 1006.91 1007.19 1007.34 1007.57 1007.98 1008.18 1008.32 1008.41 1008.52 1008.59 1008.64 1008.24 1008.22 1008.39 1008.51 1008.54 1008.58
1014.56 1014.36 1013.84 1013.73 1013.69 1013.60 1012.37 1011.49 1010.96 1010.84 1011.40 1011.79 1011.95 1011.93 1011.78 1011.35 1010.88 1010.46 1010.00 1009.50 1009.00 1008.52 1007.90 1007.07 1006.44 1006.06 1005.85 1005.41 1005.29 1005.54 1005.72 1006.18 1006.36 1006.69 1007.00 1007.21 1007.47 1007.62 1007.82 1007.78 1007.63 1007.72 1007.69 1007.75 1007.97 1007.60 1007.59 1007.72 1007.82
1014.14 1014.17 1014.06 1014.05 1013.61 1013.30 1012.66 1011.12 1011.05 1011.34 1011.64 1012.04 1012.21 1012.35 1012.18 1012.03 1011.69 1011.15 1010.55 1010.13 1009.49 1008.50 1007.77 1007.04 1006.29 1005.63 1005.36 1005.28 1005.26 1005.57 1005.93 1006.28 1006.34 1006.45 1006.59 1006.78 1007.01 1007.05 1007.09 1007.18 1007.16 1007.07 1007.07 1006.73 1007.22 1007.25 1006.99 1006.90 1007.18
1014.11 1014.38 1014.50 1014.24 1013.84 1012.94 1013.27 1011.33 1011.25 1011.37 1011.58 1011.90 1012.06 1012.11 1012.10 1011.92 1011.66 1011.38 1010.91 1010.32 1009.73 1009.06 1008.22 1007.22 1006.21 1005.43 1005.13 1004.88 1004.72 1005.06 1005.29 1006.14 1006.59 1006.14 1006.11 1006.36 1006.63 1006.56 1006.47 1006.48 1006.47 1006.50 1006.47 1006.33 1006.52 1006.32 1006.46 1006.78 1006.77
1014.48 1014.78 1014.64 1014.38 1013.93 1013.85 1013.06 1012.83 1011.35 1011.65 1011.26 1011.19 1011.74 1011.98 1012.00 1011.87 1011.74 1011.36 1010.88 1010.60 1010.11 1009.28 1008.45 1007.62 1006.74 1006.03 1005.46 1004.75 1004.24 1004.68 1005.10 1005.27 1006.37 1006.37 1006.26 1006.16 1006.07 1005.86 1005.73 1005.87 1006.05 1005.94 1005.81 1005.95 1005.98 1005.89 1006.05 1006.31 1006.20
1015.08 1014.92 1014.36 1014.87 1014.54 1013.84 1013.53 1013.35 1011.52 1011.25 1011.19 1011.26 1011.69 1011.88 1011.93 1011.82 1011.63 1011.38 1011.05 1010.37 1009.81 1009.40 1008.76 1007.98 1007.26 1006.53 1006.01 1005.23 1004.51 1004.22 1004.92 1004.85 1005.92 1006.01 1005.77 1005.35 1005.16 1005.41 1005.27 1005.32 1005.44 1005.58 1005.47 1005.38 1005.51 1005.57 1005.54 1005.63 1005.83
1014.98 1014.99 1014.53 1014.36 1014.14 1013.79 1014.02 1013.39 1011.47 1011.42 1011.51 1011.52 1011.63 1011.75 1011.88 1011.87 1011.41 1011.24 1010.89 1010.36 1009.95 1009.38 1009.17 1008.63 1007.90 1006.97 1006.40 1005.94 1005.34 1005.30 1005.38 1004.99 1005.27 1005.69 1005.25 1004.93 1004.82 1004.91 1004.96 1005.06 1004.96 1004.79 1004.83 1004.88 1005.00 1005.18 1005.10 1005.06 1005.28
1015.29 1015.66 1015.72 1015.35 1014.62 1013.89 1014.02 1012.54 1011.26 1011.66 1011.71 1011.77 1011.87 1012.16 1012.22 1012.00 1011.66 1011.24 1010.92 1010.63 1010.32 1010.06 1009.40 1009.43 1009.11 1008.41 1007.57 1006.79 1005.45 1005.20 1005.97 1005.41 1005.51 1005.71 1005.45 1005.10 1004.97 1005.00 1005.20 1005.02 1004.78 1004.57 1004.50 1004.50 1004.66 1004.77 1004.99 1005.11 1005.44
1015.73 1016.07 1016.55 1016.36 1015.73 1015.14 1013.09 1012.62 1012.01 1011.65 1011.84 1011.91 1011.97 1012.29 1012.38 1012.23 1011.90 1011.35 1011.05 1010.98 1010.77 1010.49 1010.39 1010.15 1010.15 1009.58 1008.46 1007.34 1007.03 1006.52 1005.76 1005.50 1005.48 1005.37 1005.43 1005.30 1005.28 1005.23 1005.17 1005.06 1004.80 1004.61 1004.75 1004.79 1004.77 1004.96 1005.18 1005.33 1005.70
1015.72 1016.27 1016.86 1017.14 1016.47 1014.74 1012.93 1012.52 1011.52 1011.47 1011.69 1011.80 1012.04 1012.50 1012.64 1012.54 1012.14 1011.56 1011.32 1011.24 1011.02 1011.02 1010.76 1010.29 1010.41 1010.09 1008.97 1007.61 1006.49 1005.90 1005.80 1006.07 1005.90 1005.83 1005.77 1005.80 1005.91 1005.80 1005.55 1005.35 1004.94 1004.78 1004.76 1004.97 1005.15 1005.05 1005.34 1005.71 1006.13
1015.82 1016.13 1016.83 1017.53 1017.20 1015.74 1013.92 1011.74 1011.74 1011.73 1011.83 1012.14 1012.49 1012.73 1012.85 1012.86 1012.54 1011.95 1011.76 1011.59 1011.27 1011.12 1011.07 1010.58 1010.84 1010.40 1009.30 1007.95 1007.20 1006.65 1006.37 1006.41 1006.24 1006.25 1006.29 1006.27 1006.06 1005.89 1005.60 1005.57 1005.40 1005.14 1005.12 1005.19 1005.30 1005.60 1005.78 1006.06 1006.44
1016.40 1016.37 1016.84 1017.17 1016.82 1016.46 1015.41 1012.21 1011.92 1012.06 1012.40 1012.79 1012.81 1012.86 1012.82 1012.89 1012.81 1012.42 1011.98 1011.87 1011.54 1011.47 1011.74 1011.67 1011.27 1010.65 1009.67 1008.56 1007.71 1007.09 1006.65 1006.64 1006.64 1006.81 1006.76 1006.63 1006.27 1006.07 1005.91 1005.71 1005.79 1005.60 1005.59 1005.66 1005.84 1005.95 1006.07 1006.57 1007.29
Thickness
5792 5794 5797 5796 5778 5777 5757 5760 5772 5781 5793 5811 5814 5811 5816 5819 5811 5796 5837 5841 5839 5838 5834 5829 5827 5824 5821 5819 5819 5817 5817 5818 5817 5816 5812 5810 5808 5806 5803 5801 5800 5798 5797 5796 5796 5795 5793 5792 5791
5791 5794 5794 5784 5769 5763 5749 5761 5769 5779 5792 5803 5811 5815 5813 5804 5825 5829 5834 5838 5838 5835 5832 5829 5826 5824 5820 5819 5817 5816 5814 5814 5813 5812 5809 5807 5805 5803 5800 5797 5796 5796 5795 5793 5792 5791 5790 5789 5788
5792 5794 5786 5770 5753 5750 5748 5760 5769 5785 5794 5799 5807 5817 5809 5796 5819 5825 5833 5834 5834 5832 5829 5826 5824 5822 5818 5816 5814 5811 5811 5810 5809 5809 5807 5805 5802 5800 5797 5793 5793 5793 5792 5790 5788 5787 5786 5786 5786
5789 5788 5775 5760 5746 5747 5750 5760 5770 5783 5797 5802 5800 5796 5805 5807 5808 5821 5828 5831 5831 5830 5827 5822 5819 5817 5815 5813 5811 5808 5807 5805 5805 5805 5803 5802 5799 5797 5794 5791 5790 5789 5788 5786 5785 5784 5783 5783 5783
5783 5777 5757 5743 5738 5748 5757 5762 5767 5773 5779 5788 5797 5787 5790 5805 5810 5818 5820 5823 5822 5823 5821 5819 5816 5813 5811 5810 5808 5806 5804 5802 5801 5800 5799 5798 5795 5793 5790 5788 5787 5786 5784 5783 5782 5781 5781 5781 5781
5769 5766 5748 5735 5735 5744 5754 5759 5764 5770 5773 5780 5783 5783 5783 5801 5806 5811 5815 5816 5818 5816 5816 5814 5811 5808 5806 5804 5803 5802 5801 5799 5797 5796 5795 5794 5792 5788 5786 5784 5783 5782 5781 5780 5779 5779 5778 5778 5778
5761 5755 5732 5730 5731 5737 5744 5755 5757 5758 5765 5766 5772 5767 5780 5790 5796 5803 5807 5810 5810 5809 5809 5808 5806 5804 5801 5800 5798 5797 5797 5795 5793 5792 5791 5790 5789 5786 5782 5780 5780 5779 5777 5777 5777 5776 5775 5775 5775
5756 5750 5730 5727 5725 5725 5740 5746 5752 5753 5755 5771 5772 5756 5762 5779 5789 5795 5798 5798 5799 5800 5801 5800 5799 5798 5796 5795 5791 5790 5790 5790 5789 5787 5786 5785 5784 5783 5780 5777 5777 5776 5775 5775 5774 5773 5772 5773 5773
5751 5738 5724 5722 5723 5724 5736 5734 5750 5754 5751 5754 5758 5760 5768 5775 5780 5783 5785 5789 5790 5790 5790 5792 5793 5792 5790 5789 5787 5785 5784 5782 5781 5781 5781 5779 5780 5781 5779 5777 5775 5773 5773 5772 5770 5770 5770 5770 5771
5742 5728 5718 5726 5726 5723 5728 5729 5736 5738 5739 5742 5749 5759 5760 5764 5766 5766 5770 5776 5782 5783 5785 5786 5784 5785 5786 5783 5781 5779 5779 5779 5778 5777 5777 5776 5777 5775 5775 5774 5771 5771 5771 5770 5768 5768 5768 5768 5771
5727 5720 5720 5724 5725 5723 5722 5725 5731 5728 5727 5732 5728 5737 5749 5753 5753 5752 5757 5761 5767 5775 5777 5781 5778 5777 5778 5776 5776 5775 5772 5772 5771 5771 5770 5771 5771 5771 5769 5769 5769 5769 5768 5769 5769 5768 5768 5769 5769
5716 5716 5717 5720 5721 5717 5717 5720 5721 5721 5723 5726 5730 5733 5738 5742 5745 5746 5747 5751 5753 5759 5767 5771 5771 5768 5768 5769 5769 5770 5768 5764 5763 5761 5762 5764 5765 5763 5761 5763 5764 5764 5766 5767 5766 5767 5766 5765 5765
5714 5711 5712 5713 5712 5712 5713 5714 5712 5713 5722 5723 5726 5730 5731 5734 5737 5742 5742 5744 5745 5744 5751 5756 5759 5761 5761 5759 5764 5762 5762 5759 5757 5755 5755 5757 5755 5756 5754 5755 5756 5759 5761 5761 5763 5764 5763 5763 5763
5707 5706 5707 5709 5710 5711 5709 5712 5711 5716 5717 5718 5720 5724 5728 5730 5732 5736 5738 5739 5738 5737 5739 5742 5744 5748 5750 5751 5753 5754 5754 5754 5750 5750 5749 5750 5750 5748 5749 5747 5750 5755 5755 5757 5758 5759 5760 5761 5761
5705 5704 5704 5704 5702 5705 5710 5709 5707 5716 5712 5714 5715 5718 5720 5720 5723 5723 5728 5730 5731 5732 5733 5732 5731 5735 5735 5736 5737 5740 5741 5742 5742 5742 5740 5739 5743 5743 5744 5745 5749 5750 5750 5750 5752 5753 5754 5754 5756
5695 5693 5687 5700 5696 5698 5697 5700 5705 5712 5706 5709 5709 5709 5709 5710 5708 5713 5715 5718 5725 5726 5727 5729 5728 5728 5725 5725 5725 5726 5728 5729 5729 5733 5732 5733 5733 5733 5733 5737 5743 5746 5745 5745 5747 5748 5749 5751 5752
5685 5677 5678 5684 5691 5686 5684 5689 5702 5707 5702 5700 5701 5703 5702 5702 5703 5704 5706 5709 5711 5714 5718 5723 5722 5721 5721 5716 5710 5710 5711 5712 5720 5720 5722 5724 5725 5727 5727 5730 5735 5736 5740 5740 5741 5743 5743 5746 5747
5670 5671 5675 5671 5687 5682 5680 5681 5697 5702 5692 5689 5691 5692 5692 5691 5691 5693 5696 5698 5701 5703 5705 5709 5712 5711 5712 5709 5701 5694 5695 5698 5699 5706 5709 5711 5715 5716 5717 5722 5725 5728 5731 5733 5736 5736 5739 5740 5744
5671 5665 5667 5675 5676 5667 5675 5675 5683 5693 5682 5678 5676 5675 5676 5678 5683 5686 5689 5691 5695 5696 5699 5699 5699 5700 5698 5696 5689 5685 5684 5689 5689 5690 5696 5699 5701 5702 5706 5712 5716 5719 5722 5728 5731 5732 5731 5734 5738
5661 5656 5661 5665 5662 5656 5666 5669 5677 5677 5666 5661 5658 5657 5657 5662 5668 5673 5676 5680 5681 5683 5685 5689 5692 5693 5691 5692 5691 5687 5684 5678 5677 5682 5681 5686 5690 5694 5695 5701 5709 5714 5718 5721 5721 5727 5729 5731 5733
5661 5651 5649 5644 5655 5656 5648 5662 5661 5660 5656 5651 5648 5644 5644 5643 5645 5650 5656 5660 5664 5670 5675 5679 5682 5685 5686 5685 5683 5678 5674 5669 5664 5665 5671 5678 5682 5686 5691 5694 5699 5705 5709 5716 5715 5717 5723 5724 5726
5648 5649 5641 5638 5636 5634 5639 5635 5644 5644 5641 5637 5636 5634 5632 5632 5634 5635 5639 5643 5647 5653 5661 5667 5674 5678 5680 5680 5677 5672 5668 5658 5651 5659 5664 5668 5672 5678 5682 5685 5690 5696 5701 5707 5709 5714 5716 5717 5716
5644 5640 5634 5630 5626 5615 5628 5617 5632 5625 5629 5632 5626 5623 5622 5622 5621 5622 5626 5629 5633 5640 5646 5653 5659 5663 5668 5673 5675 5669 5662 5662 5656 5654 5653 5657 5664 5670 5674 5678 5680 5687 5693 5697 5700 5705 5707 5709 5710
5632 5628 5630 5609 5607 5608 5607 5602 5621 5622 5620 5621 5616 5614 5613 5612 5611 5610 5614 5621 5625 5629 5634 5640 5646 5650 5654 5661 5666 5667 5660 5661 5650 5649 5650 5654 5659 5662 5666 5670 5673 5676 5682 5688 5691 5694 5699 5702 5704
5626 5614 5603 5606 5605 5601 5595 5592 5614 5615 5611 5606 5602 5600 5599 5598 5602 5601 5603 5608 5612 5616 5619 5625 5631 5638 5643 5648 5653 5652 5653 5654 5649 5646 5650 5651 5653 5655 5659 5662 5666 5671 5677 5682 5684 5686 5691 5695 5696
5608 5601 5588 5572 5586 5594 5597 5585 5606 5604 5600 5597 5591 5584 5583 5583 5585 5586 5589 5594 5598 5600 5606 5609 5612 5617 5626 5633 5645 5647 5641 5644 5643 5641 5643 5646 5647 5648 5649 5653 5658 5663 5667 5672 5675 5678 5680 5684 5685
5595 5589 5584 5571 5578 5565 5590 5587 5595 5595 5585 5580 5576 5570 5567 5568 5569 5573 5575 5577 5581 5584 5587 5592 5594 5598 5610 5623 5625 5630 5637 5639 5638 5640 5640 5640 5641 5642 5643 5645 5649 5651 5651 5655 5659 5663 5666 5669 5671
5595 5589 5567 5558 5541 5553 5579 5571 5581 5579 5569 5570 5565 5557 5553 5553 5556 5561 5564 5566 5568 5569 5575 5579 5581 5583 5598 5613 5624 5630 5631 5630 5631 5630 5629 5629 5629 5630 5633 5634 5638 5640 5642 5641 5643 5649 5651 5654 5655
5585 5573 5561 5546 5540 5537 5546 5570 5576 5568 5563 5553 5547 5546 5543 5542 5544 5549 5550 5553 5555 5559 5561 5566 5569 5573 5588 5603 5611 5617 5621 5621 5623 5621 5621 5620 5622 5623 5626 5625 5627 5630 5631 5631 5632 5632 5635 5639 5640
5572 5566 5555 5533 5535 5527 5526 5546 5573 5561 5548 5540 5540 5537 5539 5537 5537 5539 5541 5541 5542 5546 5545 5548 5553 5564 5577 5591 5601 5609 5615 5616 5614 5613 5614 5613 5615 5616 5616 5618 5617 5619 5620 5619 5619 5620 5621 5621 5620